Cosmos 1939 Rocket - Orbit

View from above orbital plane
View from above orbital plane
View from above satellite
View from above satellite

Ground track
Ground track

The orbit data is extracted from the following two-line orbital elements,

1 19046U 88032B   13140.15291454  .00001896  00000-0  16333-3 0  5361
2 19046 097.7042 195.6436 0034937 341.1735 018.8192 14.98089655349331
Epoch (UTC): 20 May 2013 03:40:11
Eccentricity: 0.0034937
inclination: 97.7042°
perigee height: 548 km
apogee height: 597 km
right ascension of ascending node: 195.6436°
argument of perigee: 341.1735°
revolutions per day: 14.98089655
mean anomaly at epoch: 18.8192°
orbit number at epoch: 34933

The dashed part of the orbit path shows where the satellite is in the earth's shadow,  

Developed and maintained by Chris Peat, Heavens-Above GmbH. Please read the updated FAQ before sending e-mail. Imprint. DLR